�N����,�����b,���ԉ��x,���Ԏ��x,��󒲎�,����,�����W,���։��x,���֎��x,,,
2005/3/1,0:00:00,19.3 ,37.4 ,9.5 ,5.2 ,15.5 ,18.8 ,35.3 ,,,
2005/3/1,0:15:00,19.1 ,37.4 ,9.5 ,5.3 ,15.2 ,18.7 ,35.1 ,,,
2005/3/1,0:30:00,18.8 ,37.7 ,9.5 ,5.3 ,15.0 ,18.6 ,34.9 ,,,
2005/3/1,0:45:00,18.5 ,37.7 ,9.5 ,5.4 ,14.8 ,18.4 ,34.6 ,,,
2005/3/1,1:00:00,18.2 ,37.3 ,9.5 ,5.4 ,14.7 ,18.3 ,34.4 ,,,
2005/3/1,1:15:00,18.0 ,37.0 ,9.4 ,5.5 ,14.6 ,18.2 ,34.3 ,,,
2005/3/1,1:30:00,17.8 ,37.0 ,9.4 ,5.5 ,14.4 ,18.1 ,34.1 ,,,
2005/3/1,1:45:00,17.5 ,36.9 ,9.4 ,5.6 ,14.3 ,17.8 ,34.1 ,,,
2005/3/1,2:00:00,17.3 ,37.0 ,9.4 ,5.6 ,14.0 ,17.7 ,33.9 ,,,
2005/3/1,2:15:00,17.1 ,37.1 ,9.3 ,5.6 ,13.8 ,17.6 ,33.9 ,,,
2005/3/1,2:30:00,16.9 ,37.3 ,9.3 ,5.7 ,13.5 ,17.4 ,33.8 ,,,
2005/3/1,2:45:00,16.7 ,37.4 ,9.3 ,5.7 ,13.3 ,17.3 ,33.8 ,,,
2005/3/1,3:00:00,16.5 ,37.4 ,9.3 ,5.7 ,13.2 ,17.2 ,33.7 ,,,
2005/3/1,3:15:00,16.3 ,37.8 ,9.3 ,5.8 ,13.0 ,17.1 ,33.6 ,,,
2005/3/1,3:30:00,16.1 ,38.0 ,9.2 ,5.8 ,12.9 ,16.9 ,33.6 ,,,
2005/3/1,3:45:00,16.0 ,38.3 ,9.2 ,5.8 ,12.7 ,16.8 ,33.5 ,,,
2005/3/1,4:00:00,15.8 ,38.4 ,9.2 ,5.8 ,12.5 ,16.6 ,33.4 ,,,
2005/3/1,4:15:00,15.6 ,38.5 ,9.2 ,5.9 ,12.4 ,16.5 ,33.4 ,,,
2005/3/1,4:30:00,15.4 ,38.4 ,9.1 ,5.9 ,12.3 ,16.3 ,33.4 ,,,
2005/3/1,4:45:00,15.3 ,38.5 ,9.1 ,5.9 ,12.2 ,16.2 ,33.4 ,,,
2005/3/1,5:00:00,15.1 ,38.6 ,9.0 ,5.9 ,12.1 ,16.1 ,33.4 ,,,
2005/3/1,5:15:00,14.9 ,38.8 ,9.0 ,6.0 ,12.0 ,15.9 ,33.4 ,,,
2005/3/1,5:30:00,14.8 ,38.8 ,9.0 ,6.0 ,11.9 ,15.8 ,33.4 ,,,
2005/3/1,5:45:00,14.7 ,38.9 ,9.0 ,6.0 ,11.8 ,15.8 ,33.4 ,,,
2005/3/1,6:00:00,15.4 ,39.7 ,8.9 ,6.0 ,11.8 ,15.6 ,33.4 ,,,
2005/3/1,6:15:00,17.0 ,37.6 ,8.9 ,6.0 ,12.8 ,15.6 ,34.0 ,,,
2005/3/1,6:30:00,17.7 ,37.6 ,8.9 ,6.0 ,13.4 ,15.8 ,34.5 ,,,
2005/3/1,6:45:00,18.2 ,36.6 ,8.9 ,6.0 ,13.7 ,15.9 ,34.9 ,,,
2005/3/1,7:00:00,18.4 ,36.2 ,8.9 ,6.0 ,14.0 ,16.0 ,35.1 ,,,
2005/3/1,7:15:00,18.9 ,37.6 ,8.9 ,6.0 ,16.4 ,16.1 ,35.3 ,,,
2005/3/1,7:30:00,18.9 ,36.6 ,8.9 ,4.7 ,19.8 ,16.3 ,35.4 ,,,
2005/3/1,7:45:00,19.4 ,36.6 ,8.9 ,4.8 ,19.7 ,16.3 ,35.6 ,,,
2005/3/1,8:00:00,19.8 ,36.6 ,8.9 ,4.9 ,18.2 ,16.6 ,35.9 ,,,
2005/3/1,8:15:00,20.1 ,34.9 ,9.1 ,4.9 ,17.5 ,16.8 ,35.8 ,,,
2005/3/1,8:30:00,20.6 ,33.7 ,9.1 ,4.9 ,17.1 ,16.9 ,35.7 ,,,
2005/3/1,8:45:00,20.6 ,33.4 ,9.2 ,5.0 ,17.0 ,17.1 ,35.5 ,,,
2005/3/1,9:00:00,21.1 ,33.4 ,9.2 ,5.0 ,17.1 ,17.3 ,35.4 ,,,
2005/3/1,9:15:00,21.3 ,34.5 ,9.3 ,5.1 ,17.2 ,17.4 ,35.4 ,,,
2005/3/1,9:30:00,21.6 ,35.2 ,9.3 ,5.1 ,17.4 ,17.6 ,35.6 ,,,
2005/3/1,9:45:00,21.5 ,35.5 ,9.5 ,4.6 ,17.4 ,17.8 ,35.7 ,,,
2005/3/1,10:00:00,21.6 ,35.6 ,9.5 ,4.7 ,17.5 ,17.9 ,35.8 ,,,
2005/3/1,10:15:00,21.7 ,35.0 ,9.9 ,4.8 ,17.4 ,18.1 ,35.8 ,,,
2005/3/1,10:30:00,21.9 ,34.9 ,9.8 ,4.8 ,17.8 ,18.2 ,35.7 ,,,
2005/3/1,10:45:00,20.7 ,36.5 ,9.7 ,4.9 ,17.5 ,18.3 ,35.6 ,,,
2005/3/1,11:00:00,21.8 ,34.3 ,9.7 ,4.9 ,17.6 ,18.4 ,35.6 ,,,
2005/3/1,11:15:00,22.0 ,33.6 ,9.7 ,5.0 ,17.8 ,18.4 ,35.6 ,,,
2005/3/1,11:30:00,21.1 ,34.7 ,9.7 ,5.0 ,17.7 ,18.6 ,35.4 ,,,
2005/3/1,11:45:00,20.5 ,36.1 ,9.7 ,5.1 ,17.4 ,18.6 ,35.3 ,,,
2005/3/1,12:00:00,21.8 ,37.7 ,9.7 ,5.1 ,17.4 ,18.6 ,35.4 ,,,
2005/3/1,12:15:00,21.4 ,36.5 ,9.7 ,5.2 ,21.1 ,18.7 ,35.6 ,,,
2005/3/1,12:30:00,20.7 ,36.4 ,9.7 ,5.2 ,21.3 ,18.7 ,35.5 ,,,
2005/3/1,12:45:00,20.6 ,35.4 ,9.7 ,5.3 ,21.4 ,18.7 ,35.3 ,,,
2005/3/1,13:00:00,20.6 ,35.0 ,9.8 ,5.3 ,21.1 ,18.6 ,35.2 ,,,
2005/3/1,13:15:00,20.9 ,35.8 ,9.9 ,5.0 ,20.0 ,18.6 ,35.2 ,,,
2005/3/1,13:30:00,20.5 ,37.1 ,9.8 ,5.1 ,19.0 ,18.7 ,35.2 ,,,
2005/3/1,13:45:00,20.6 ,38.9 ,9.8 ,5.1 ,18.3 ,18.7 ,35.4 ,,,
2005/3/1,14:00:00,20.8 ,39.8 ,9.9 ,5.2 ,17.9 ,18.7 ,35.7 ,,,
2005/3/1,14:15:00,20.8 ,40.2 ,9.9 ,4.6 ,17.7 ,18.8 ,35.9 ,,,
2005/3/1,14:30:00,20.8 ,39.3 ,9.9 ,4.7 ,17.6 ,18.8 ,36.1 ,,,
2005/3/1,14:45:00,20.0 ,39.6 ,10.0 ,4.8 ,16.9 ,18.8 ,35.9 ,,,
2005/3/1,15:00:00,19.7 ,39.5 ,10.0 ,4.9 ,16.4 ,18.8 ,35.8 ,,,
2005/3/1,15:15:00,19.4 ,39.4 ,10.0 ,4.9 ,16.0 ,18.7 ,35.6 ,,,
2005/3/1,15:30:00,19.2 ,39.3 ,10.0 ,5.0 ,15.7 ,18.6 ,35.5 ,,,
2005/3/1,15:45:00,18.9 ,39.2 ,10.0 ,5.1 ,15.3 ,18.6 ,35.3 ,,,
2005/3/1,16:00:00,18.7 ,39.4 ,9.9 ,5.1 ,15.0 ,18.4 ,35.1 ,,,
2005/3/1,16:15:00,18.4 ,39.1 ,9.9 ,5.2 ,14.8 ,18.4 ,34.9 ,,,
2005/3/1,16:30:00,19.8 ,36.2 ,9.6 ,5.3 ,15.3 ,18.3 ,35.2 ,,,
2005/3/1,16:45:00,20.3 ,35.1 ,9.5 ,5.3 ,15.9 ,18.3 ,35.4 ,,,
2005/3/1,17:00:00,20.7 ,34.5 ,9.4 ,5.4 ,16.4 ,18.4 ,35.5 ,,,
2005/3/1,17:15:00,20.8 ,34.3 ,9.4 ,5.4 ,16.6 ,18.4 ,35.4 ,,,
2005/3/1,17:30:00,19.8 ,35.7 ,9.3 ,5.5 ,16.4 ,18.5 ,35.3 ,,,
2005/3/1,17:45:00,19.3 ,36.8 ,9.3 ,5.5 ,15.7 ,18.4 ,35.0 ,,,
2005/3/1,18:00:00,19.1 ,37.0 ,9.3 ,5.6 ,15.5 ,18.4 ,34.8 ,,,
2005/3/1,18:15:00,20.6 ,34.2 ,9.2 ,5.6 ,16.1 ,18.4 ,34.9 ,,,
2005/3/1,18:30:00,21.1 ,33.2 ,9.2 ,5.6 ,16.9 ,18.4 ,35.1 ,,,
2005/3/1,18:45:00,21.5 ,32.6 ,9.2 ,5.7 ,17.2 ,18.5 ,35.1 ,,,
2005/3/1,19:00:00,21.8 ,32.1 ,9.1 ,5.7 ,17.4 ,18.6 ,35.0 ,,,
2005/3/1,19:15:00,21.9 ,31.8 ,9.1 ,5.7 ,17.6 ,18.8 ,34.9 ,,,
2005/3/1,19:30:00,22.2 ,31.5 ,9.1 ,5.8 ,17.8 ,18.9 ,34.8 ,,,
2005/3/1,19:45:00,22.4 ,31.9 ,9.0 ,5.8 ,17.8 ,18.9 ,34.8 ,,,
2005/3/1,20:00:00,22.5 ,31.5 ,9.0 ,5.8 ,17.9 ,19.1 ,34.7 ,,,
2005/3/1,20:15:00,20.9 ,33.7 ,9.2 ,5.9 ,17.4 ,19.1 ,34.6 ,,,
2005/3/1,20:30:00,20.1 ,35.1 ,9.3 ,5.9 ,16.6 ,19.1 ,34.4 ,,,
2005/3/1,20:45:00,19.6 ,35.8 ,9.3 ,5.9 ,15.9 ,19.0 ,34.2 ,,,
2005/3/1,21:00:00,20.5 ,34.1 ,9.3 ,5.9 ,16.2 ,18.9 ,34.2 ,,,
2005/3/1,21:15:00,21.1 ,33.1 ,9.4 ,6.0 ,16.8 ,18.9 ,34.3 ,,,
2005/3/1,21:30:00,21.3 ,32.7 ,9.4 ,6.0 ,17.1 ,18.9 ,34.3 ,,,
2005/3/1,21:45:00,21.4 ,32.4 ,9.4 ,6.0 ,17.3 ,18.9 ,34.3 ,,,
2005/3/1,22:00:00,21.3 ,32.9 ,9.5 ,6.0 ,17.4 ,18.9 ,34.3 ,,,
2005/3/1,22:15:00,21.7 ,33.0 ,9.5 ,6.1 ,17.4 ,19.0 ,34.3 ,,,
2005/3/1,22:30:00,20.4 ,35.0 ,9.5 ,6.1 ,17.1 ,19.0 ,34.3 ,,,
2005/3/1,22:45:00,19.8 ,36.9 ,9.5 ,6.1 ,16.5 ,19.0 ,34.3 ,,,
2005/3/1,23:00:00,19.9 ,37.9 ,9.5 ,6.1 ,16.1 ,18.9 ,34.3 ,,,
2005/3/1,23:15:00,20.7 ,36.5 ,9.5 ,4.6 ,16.6 ,18.9 ,34.4 ,,,
2005/3/1,23:30:00,21.0 ,36.4 ,9.5 ,4.7 ,17.0 ,18.9 ,34.6 ,,,
2005/3/1,23:45:00,21.1 ,39.2 ,9.4 ,4.8 ,17.3 ,18.9 ,34.9 ,,,
2005/3/2,0:00:00,19.9 ,40.6 ,9.4 ,4.7 ,16.7 ,18.9 ,35.0 ,,,
2005/3/2,0:15:00,19.4 ,39.7 ,9.4 ,4.8 ,16.0 ,18.8 ,34.9 ,,,
2005/3/2,0:30:00,19.0 ,39.7 ,9.4 ,4.9 ,15.7 ,18.7 ,34.8 ,,,
2005/3/2,0:45:00,18.7 ,39.4 ,9.4 ,4.9 ,15.3 ,18.6 ,34.6 ,,,
2005/3/2,1:00:00,18.4 ,39.4 ,9.3 ,4.9 ,15.0 ,18.4 ,34.4 ,,,
2005/3/2,1:15:00,18.1 ,38.9 ,9.3 ,5.0 ,14.8 ,18.3 ,34.3 ,,,
2005/3/2,1:30:00,17.9 ,38.5 ,9.3 ,5.0 ,14.5 ,18.1 ,34.2 ,,,
2005/3/2,1:45:00,17.6 ,37.9 ,9.3 ,5.1 ,14.3 ,18.0 ,34.1 ,,,
2005/3/2,2:00:00,17.5 ,37.9 ,9.3 ,5.1 ,14.1 ,17.8 ,34.0 ,,,
2005/3/2,2:15:00,17.3 ,37.8 ,9.2 ,5.1 ,14.1 ,17.6 ,33.9 ,,,
2005/3/2,2:30:00,17.1 ,37.8 ,9.2 ,5.2 ,13.9 ,17.5 ,33.8 ,,,
2005/3/2,2:45:00,16.9 ,37.7 ,9.2 ,5.2 ,13.7 ,17.4 ,33.6 ,,,
2005/3/2,3:00:00,16.7 ,37.6 ,9.2 ,5.2 ,13.7 ,17.3 ,33.5 ,,,
2005/3/2,3:15:00,16.5 ,37.7 ,9.2 ,5.2 ,13.5 ,17.1 ,33.4 ,,,
2005/3/2,3:30:00,16.3 ,37.8 ,9.1 ,5.3 ,13.3 ,17.0 ,33.4 ,,,
2005/3/2,3:45:00,16.1 ,37.8 ,9.1 ,5.3 ,13.1 ,16.8 ,33.3 ,,,
2005/3/2,4:00:00,16.0 ,37.8 ,9.1 ,5.4 ,13.0 ,16.7 ,33.3 ,,,
2005/3/2,4:15:00,15.8 ,37.9 ,9.1 ,5.4 ,12.9 ,16.6 ,33.2 ,,,
2005/3/2,4:30:00,15.6 ,38.0 ,9.0 ,5.4 ,12.7 ,16.4 ,33.1 ,,,
2005/3/2,4:45:00,15.5 ,38.0 ,9.0 ,5.4 ,12.6 ,16.3 ,33.1 ,,,
2005/3/2,5:00:00,15.3 ,38.4 ,9.0 ,5.4 ,12.5 ,16.2 ,33.2 ,,,
2005/3/2,5:15:00,15.2 ,38.4 ,9.0 ,5.5 ,12.3 ,16.1 ,33.2 ,,,
2005/3/2,5:30:00,15.0 ,38.4 ,8.9 ,5.5 ,12.2 ,15.9 ,33.1 ,,,
2005/3/2,5:45:00,14.9 ,38.8 ,8.9 ,5.5 ,11.9 ,15.8 ,33.1 ,,,
2005/3/2,6:00:00,15.5 ,39.3 ,8.9 ,5.5 ,11.8 ,15.7 ,33.1 ,,,
2005/3/2,6:15:00,17.2 ,37.3 ,8.9 ,5.5 ,13.0 ,15.8 ,33.5 ,,,
2005/3/2,6:30:00,17.8 ,37.6 ,8.9 ,5.5 ,13.5 ,15.8 ,34.1 ,,,
2005/3/2,6:45:00,18.3 ,36.6 ,8.9 ,5.6 ,14.0 ,15.9 ,34.6 ,,,
2005/3/2,7:00:00,18.5 ,36.2 ,8.9 ,5.5 ,16.0 ,16.1 ,34.7 ,,,
2005/3/2,7:15:00,18.6 ,35.5 ,8.9 ,4.8 ,20.3 ,16.2 ,34.7 ,,,
2005/3/2,7:30:00,19.1 ,36.5 ,8.9 ,4.9 ,20.8 ,16.3 ,34.8 ,,,
2005/3/2,7:45:00,19.3 ,37.4 ,9.0 ,5.0 ,18.7 ,16.4 ,35.0 ,,,
2005/3/2,8:00:00,19.5 ,38.0 ,9.1 ,5.0 ,17.5 ,16.6 ,35.3 ,,,
2005/3/2,8:15:00,19.7 ,36.7 ,9.2 ,5.1 ,17.0 ,16.7 ,35.4 ,,,
2005/3/2,8:30:00,19.9 ,35.8 ,9.2 ,5.2 ,16.5 ,16.8 ,35.4 ,,,
2005/3/2,8:45:00,20.0 ,35.4 ,9.2 ,5.2 ,16.3 ,16.9 ,35.4 ,,,
2005/3/2,9:00:00,20.4 ,34.9 ,9.2 ,5.3 ,16.3 ,17.1 ,35.3 ,,,
2005/3/2,9:15:00,20.5 ,34.6 ,9.2 ,5.3 ,16.4 ,17.2 ,35.4 ,,,
2005/3/2,9:30:00,20.7 ,35.2 ,9.2 ,5.4 ,16.6 ,17.3 ,35.3 ,,,
2005/3/2,9:45:00,20.9 ,37.4 ,9.2 ,5.3 ,16.9 ,17.4 ,35.5 ,,,
2005/3/2,10:00:00,20.9 ,37.0 ,9.3 ,4.7 ,17.0 ,17.5 ,35.8 ,,,
2005/3/2,10:15:00,20.9 ,36.1 ,9.3 ,4.8 ,16.9 ,17.6 ,35.8 ,,,
2005/3/2,10:30:00,21.0 ,34.8 ,9.4 ,4.8 ,17.0 ,17.8 ,35.7 ,,,
2005/3/2,10:45:00,21.4 ,35.3 ,9.5 ,4.9 ,17.0 ,17.9 ,35.6 ,,,
2005/3/2,11:00:00,21.1 ,36.6 ,9.5 ,4.9 ,17.1 ,18.1 ,35.6 ,,,
2005/3/2,11:15:00,21.0 ,36.2 ,9.6 ,5.0 ,17.2 ,18.1 ,35.6 ,,,
2005/3/2,11:30:00,21.4 ,35.4 ,9.4 ,5.0 ,17.3 ,18.3 ,35.6 ,,,
2005/3/2,11:45:00,20.1 ,36.3 ,9.7 ,5.1 ,17.0 ,18.3 ,35.5 ,,,
2005/3/2,12:00:00,19.5 ,37.0 ,9.8 ,5.1 ,16.3 ,18.3 ,35.2 ,,,
2005/3/2,12:15:00,19.1 ,37.3 ,9.8 ,5.2 ,15.7 ,18.3 ,34.9 ,,,
2005/3/2,12:30:00,18.8 ,37.4 ,9.8 ,5.2 ,15.3 ,18.1 ,34.8 ,,,
2005/3/2,12:45:00,18.5 ,37.5 ,9.9 ,5.3 ,15.0 ,18.1 ,34.6 ,,,
2005/3/2,13:00:00,18.2 ,37.7 ,9.9 ,5.3 ,14.7 ,17.9 ,34.4 ,,,
2005/3/2,13:15:00,17.9 ,37.7 ,9.9 ,5.4 ,14.4 ,17.8 ,34.2 ,,,
2005/3/2,13:30:00,17.6 ,37.6 ,9.9 ,5.4 ,14.2 ,17.6 ,34.1 ,,,
2005/3/2,13:45:00,17.4 ,37.5 ,9.9 ,5.4 ,14.0 ,17.6 ,34.0 ,,,
2005/3/2,14:00:00,17.2 ,37.5 ,9.9 ,5.5 ,13.8 ,17.4 ,33.8 ,,,
2005/3/2,14:15:00,17.0 ,37.4 ,9.9 ,5.5 ,13.7 ,17.3 ,33.6 ,,,
2005/3/2,14:30:00,16.8 ,37.3 ,9.9 ,5.5 ,13.4 ,17.3 ,33.4 ,,,
2005/3/2,14:45:00,16.6 ,37.3 ,9.9 ,5.6 ,13.1 ,17.1 ,33.2 ,,,
2005/3/2,15:00:00,16.4 ,37.3 ,9.9 ,5.6 ,13.0 ,17.0 ,33.0 ,,,
2005/3/2,15:15:00,16.2 ,37.4 ,9.8 ,5.6 ,12.8 ,16.8 ,32.8 ,,,
2005/3/2,15:30:00,16.5 ,37.1 ,9.8 ,5.7 ,13.0 ,16.8 ,32.9 ,,,
2005/3/2,15:45:00,16.1 ,37.5 ,9.8 ,5.7 ,12.7 ,16.7 ,32.8 ,,,
2005/3/2,16:00:00,15.9 ,37.6 ,9.8 ,5.7 ,12.5 ,16.6 ,32.7 ,,,
2005/3/2,16:15:00,15.7 ,37.5 ,9.8 ,5.8 ,12.3 ,16.4 ,32.6 ,,,
2005/3/2,16:30:00,15.5 ,37.6 ,9.8 ,5.8 ,12.1 ,16.3 ,32.5 ,,,
2005/3/2,16:45:00,17.2 ,35.9 ,9.9 ,5.8 ,12.7 ,16.2 ,32.8 ,,,
2005/3/2,17:00:00,18.2 ,34.7 ,9.8 ,5.8 ,13.5 ,16.3 ,33.8 ,,,
2005/3/2,17:15:00,18.3 ,35.1 ,9.6 ,5.8 ,13.9 ,16.4 ,34.0 ,,,
2005/3/2,17:30:00,18.4 ,34.9 ,9.7 ,5.9 ,14.3 ,16.4 ,34.2 ,,,
2005/3/2,17:45:00,18.7 ,34.6 ,9.6 ,5.9 ,14.4 ,16.5 ,34.3 ,,,
2005/3/2,18:00:00,18.8 ,34.2 ,9.6 ,5.9 ,14.6 ,16.6 ,34.3 ,,,
2005/3/2,18:15:00,18.9 ,34.1 ,9.6 ,5.9 ,14.8 ,16.6 ,34.3 ,,,
2005/3/2,18:30:00,19.1 ,33.9 ,9.5 ,5.9 ,15.1 ,16.7 ,34.3 ,,,
2005/3/2,18:45:00,19.7 ,32.8 ,9.6 ,6.0 ,15.3 ,16.8 ,34.3 ,,,
2005/3/2,19:00:00,20.1 ,32.3 ,9.6 ,6.0 ,15.5 ,16.9 ,34.4 ,,,
2005/3/2,19:15:00,20.5 ,34.2 ,9.6 ,6.0 ,15.9 ,17.0 ,34.5 ,,,
2005/3/2,19:30:00,20.7 ,37.3 ,9.6 ,6.0 ,16.5 ,17.1 ,34.9 ,,,
2005/3/2,19:45:00,20.9 ,36.4 ,9.6 ,6.0 ,16.7 ,17.3 ,35.3 ,,,
2005/3/2,20:00:00,21.1 ,36.7 ,9.6 ,6.0 ,17.1 ,17.4 ,35.4 ,,,
2005/3/2,20:15:00,21.1 ,37.2 ,9.6 ,6.1 ,17.4 ,17.6 ,35.6 ,,,
2005/3/2,20:30:00,21.0 ,37.5 ,9.6 ,6.1 ,17.5 ,17.6 ,35.8 ,,,
2005/3/2,20:45:00,21.1 ,36.9 ,9.6 ,6.1 ,17.6 ,17.8 ,35.8 ,,,
2005/3/2,21:00:00,21.2 ,36.2 ,9.6 ,6.1 ,17.7 ,17.8 ,35.8 ,,,
2005/3/2,21:15:00,21.3 ,35.8 ,9.6 ,6.1 ,17.8 ,18.0 ,35.8 ,,,
2005/3/2,21:30:00,21.4 ,35.4 ,9.5 ,6.1 ,17.7 ,18.1 ,35.8 ,,,
2005/3/2,21:45:00,21.4 ,35.3 ,9.5 ,4.5 ,17.8 ,18.1 ,35.7 ,,,
2005/3/2,22:00:00,21.6 ,34.8 ,9.4 ,4.6 ,17.9 ,18.2 ,35.7 ,,,
2005/3/2,22:15:00,21.6 ,34.3 ,9.3 ,4.7 ,18.0 ,18.3 ,35.7 ,,,
2005/3/2,22:30:00,21.7 ,34.0 ,9.3 ,4.7 ,18.1 ,18.3 ,35.6 ,,,
2005/3/2,22:45:00,21.7 ,34.4 ,9.4 ,4.5 ,18.4 ,18.4 ,35.6 ,,,
2005/3/2,23:00:00,21.8 ,35.5 ,9.4 ,4.6 ,18.7 ,18.4 ,35.6 ,,,
2005/3/2,23:15:00,21.9 ,35.6 ,9.4 ,4.6 ,19.0 ,18.6 ,35.8 ,,,
2005/3/2,23:30:00,20.4 ,37.1 ,9.4 ,4.4 ,18.6 ,18.6 ,35.6 ,,,
2005/3/2,23:45:00,19.7 ,37.3 ,9.4 ,4.5 ,18.0 ,18.6 ,35.4 ,,,
2005/3/3,0:00:00,19.3 ,37.6 ,9.3 ,4.5 ,17.3 ,18.5 ,35.1 ,,,
2005/3/3,0:15:00,18.9 ,37.2 ,9.3 ,4.6 ,16.7 ,18.4 ,34.9 ,,,
2005/3/3,0:30:00,18.5 ,37.2 ,9.3 ,4.7 ,16.6 ,18.3 ,34.8 ,,,
2005/3/3,0:45:00,18.2 ,36.6 ,9.2 ,4.7 ,16.8 ,18.1 ,34.5 ,,,
2005/3/3,1:00:00,17.9 ,36.3 ,9.2 ,4.8 ,16.7 ,18.0 ,34.3 ,,,
2005/3/3,1:15:00,17.6 ,36.2 ,9.2 ,4.8 ,16.3 ,17.8 ,34.1 ,,,
2005/3/3,1:30:00,17.3 ,36.4 ,9.1 ,4.9 ,15.6 ,17.6 ,34.0 ,,,
2005/3/3,1:45:00,17.1 ,36.5 ,9.1 ,4.9 ,14.8 ,17.5 ,33.9 ,,,
2005/3/3,2:00:00,16.9 ,36.6 ,9.1 ,5.0 ,14.3 ,17.4 ,33.8 ,,,
2005/3/3,2:15:00,16.7 ,36.9 ,9.1 ,5.0 ,14.1 ,17.3 ,33.7 ,,,
2005/3/3,2:30:00,16.5 ,37.3 ,9.0 ,5.1 ,13.8 ,17.1 ,33.6 ,,,
2005/3/3,2:45:00,16.3 ,37.6 ,9.0 ,5.1 ,13.6 ,17.0 ,33.6 ,,,
2005/3/3,3:00:00,16.2 ,37.8 ,9.0 ,5.1 ,13.4 ,16.8 ,33.6 ,,,
2005/3/3,3:15:00,15.9 ,38.0 ,9.0 ,5.2 ,13.3 ,16.7 ,33.5 ,,,
2005/3/3,3:30:00,15.8 ,38.2 ,8.9 ,5.2 ,13.1 ,16.6 ,33.4 ,,,
2005/3/3,3:45:00,15.6 ,38.5 ,8.9 ,5.2 ,12.8 ,16.4 ,33.4 ,,,
2005/3/3,4:00:00,15.4 ,38.6 ,8.9 ,5.3 ,12.6 ,16.3 ,33.4 ,,,
2005/3/3,4:15:00,15.2 ,38.8 ,8.9 ,5.3 ,12.5 ,16.1 ,33.4 ,,,
2005/3/3,4:30:00,15.1 ,38.9 ,8.8 ,5.3 ,12.3 ,16.0 ,33.3 ,,,
2005/3/3,4:45:00,14.9 ,39.0 ,8.8 ,5.4 ,12.2 ,15.9 ,33.3 ,,,
2005/3/3,5:00:00,14.8 ,39.1 ,8.8 ,5.4 ,12.0 ,15.8 ,33.3 ,,,
2005/3/3,5:15:00,14.7 ,39.3 ,8.7 ,5.4 ,11.9 ,15.7 ,33.3 ,,,
2005/3/3,5:30:00,14.5 ,39.4 ,8.7 ,5.4 ,11.8 ,15.6 ,33.3 ,,,
2005/3/3,5:45:00,14.4 ,39.6 ,8.7 ,5.4 ,11.7 ,15.4 ,33.3 ,,,
2005/3/3,6:00:00,15.1 ,40.1 ,8.7 ,5.5 ,11.8 ,15.4 ,33.3 ,,,
2005/3/3,6:15:00,16.8 ,38.0 ,8.6 ,5.5 ,12.8 ,15.4 ,33.9 ,,,
2005/3/3,6:30:00,17.5 ,37.8 ,8.6 ,5.5 ,13.5 ,15.5 ,34.4 ,,,
2005/3/3,6:45:00,17.9 ,36.7 ,8.6 ,5.5 ,14.0 ,15.6 ,34.8 ,,,
2005/3/3,7:00:00,18.2 ,36.5 ,8.7 ,5.5 ,14.4 ,15.7 ,34.9 ,,,
2005/3/3,7:15:00,18.6 ,38.1 ,8.7 ,5.6 ,16.3 ,15.8 ,35.1 ,,,
2005/3/3,7:30:00,18.9 ,38.4 ,8.7 ,4.6 ,15.8 ,15.9 ,35.4 ,,,
2005/3/3,7:45:00,19.1 ,39.2 ,8.7 ,4.7 ,15.9 ,16.1 ,35.7 ,,,
2005/3/3,8:00:00,19.3 ,38.7 ,8.8 ,4.8 ,16.2 ,16.3 ,36.0 ,,,
2005/3/3,8:15:00,19.3 ,38.0 ,8.5 ,4.8 ,16.5 ,16.4 ,35.9 ,,,
2005/3/3,8:30:00,19.5 ,37.1 ,8.2 ,4.9 ,16.4 ,16.6 ,35.9 ,,,
2005/3/3,8:45:00,19.5 ,36.6 ,8.1 ,4.9 ,16.1 ,16.6 ,35.8 ,,,
2005/3/3,9:00:00,19.6 ,36.3 ,8.3 ,5.0 ,16.5 ,16.8 ,35.8 ,,,
2005/3/3,9:15:00,19.7 ,36.6 ,8.5 ,5.0 ,16.7 ,16.8 ,35.8 ,,,
2005/3/3,9:30:00,19.8 ,37.3 ,8.6 ,5.1 ,17.0 ,16.9 ,35.8 ,,,
2005/3/3,9:45:00,18.6 ,39.3 ,8.7 ,4.5 ,16.7 ,17.0 ,35.7 ,,,
2005/3/3,10:00:00,18.2 ,40.0 ,8.8 ,4.6 ,16.4 ,17.0 ,35.5 ,,,
2005/3/3,10:15:00,17.9 ,39.9 ,8.8 ,4.6 ,16.4 ,16.9 ,35.4 ,,,
2005/3/3,10:30:00,17.7 ,39.8 ,8.8 ,4.7 ,16.4 ,16.9 ,35.3 ,,,
2005/3/3,10:45:00,17.5 ,39.7 ,8.9 ,4.7 ,16.4 ,16.8 ,35.1 ,,,
2005/3/3,11:00:00,17.4 ,39.5 ,8.9 ,4.8 ,16.4 ,16.8 ,35.1 ,,,
2005/3/3,11:15:00,17.3 ,39.3 ,8.9 ,4.8 ,16.4 ,16.7 ,35.0 ,,,
2005/3/3,11:30:00,17.1 ,39.3 ,8.9 ,4.9 ,16.4 ,16.6 ,34.9 ,,,
2005/3/3,11:45:00,16.9 ,39.3 ,8.9 ,4.9 ,16.3 ,16.6 ,34.7 ,,,
2005/3/3,12:00:00,17.4 ,38.1 ,9.0 ,5.0 ,16.5 ,16.5 ,34.8 ,,,
2005/3/3,12:15:00,16.9 ,38.8 ,9.0 ,5.0 ,16.4 ,16.4 ,34.7 ,,,
2005/3/3,12:30:00,17.0 ,38.6 ,9.0 ,5.1 ,16.4 ,16.4 ,34.7 ,,,
2005/3/3,12:45:00,17.0 ,38.5 ,9.0 ,5.1 ,16.4 ,16.3 ,34.8 ,,,
2005/3/3,13:00:00,16.9 ,38.5 ,9.1 ,5.2 ,16.4 ,16.3 ,34.8 ,,,
2005/3/3,13:15:00,16.8 ,38.5 ,9.1 ,5.2 ,16.3 ,16.3 ,34.8 ,,,
2005/3/3,13:30:00,16.7 ,38.5 ,9.1 ,5.3 ,16.1 ,16.2 ,34.7 ,,,
2005/3/3,13:45:00,16.6 ,38.5 ,9.1 ,5.3 ,16.0 ,16.2 ,34.6 ,,,
2005/3/3,14:00:00,16.5 ,39.0 ,9.1 ,5.3 ,16.0 ,16.1 ,34.4 ,,,
2005/3/3,14:15:00,18.3 ,36.4 ,9.0 ,5.4 ,16.6 ,16.1 ,34.8 ,,,
2005/3/3,14:30:00,19.0 ,35.0 ,8.9 ,5.4 ,17.5 ,16.2 ,35.1 ,,,
2005/3/3,14:45:00,19.4 ,34.6 ,8.9 ,5.5 ,18.2 ,16.4 ,35.2 ,,,
2005/3/3,15:00:00,19.7 ,34.8 ,8.8 ,5.5 ,21.1 ,16.6 ,35.3 ,,,
2005/3/3,15:15:00,19.9 ,34.1 ,8.7 ,5.5 ,21.9 ,16.7 ,35.3 ,,,
2005/3/3,15:30:00,20.4 ,33.5 ,8.7 ,4.8 ,22.2 ,16.8 ,35.3 ,,,
2005/3/3,15:45:00,19.3 ,35.3 ,8.7 ,4.9 ,21.7 ,17.0 ,35.2 ,,,
2005/3/3,16:00:00,18.7 ,36.7 ,8.9 ,4.9 ,20.6 ,17.0 ,35.0 ,,,
2005/3/3,16:15:00,19.6 ,34.9 ,9.0 ,5.0 ,20.0 ,17.1 ,34.9 ,,,
2005/3/3,16:30:00,18.9 ,36.2 ,9.1 ,5.1 ,19.3 ,17.1 ,34.9 ,,,
2005/3/3,16:45:00,19.9 ,34.5 ,9.1 ,5.1 ,18.4 ,17.1 ,34.9 ,,,
2005/3/3,17:00:00,19.7 ,35.2 ,9.2 ,5.2 ,17.6 ,17.2 ,34.8 ,,,
2005/3/3,17:15:00,19.2 ,35.7 ,9.2 ,5.3 ,17.4 ,17.3 ,34.8 ,,,
2005/3/3,17:30:00,19.6 ,35.1 ,9.2 ,5.3 ,17.1 ,17.3 ,34.8 ,,,
2005/3/3,17:45:00,20.1 ,34.0 ,9.2 ,5.4 ,17.1 ,17.3 ,34.8 ,,,
2005/3/3,18:00:00,19.5 ,34.8 ,9.3 ,5.4 ,16.9 ,17.4 ,34.6 ,,,
2005/3/3,18:15:00,18.5 ,36.7 ,9.3 ,5.5 ,15.9 ,17.3 ,34.3 ,,,
2005/3/3,18:30:00,19.1 ,35.8 ,9.3 ,5.5 ,15.7 ,17.3 ,34.2 ,,,
2005/3/3,18:45:00,19.4 ,35.1 ,9.3 ,5.6 ,16.0 ,17.2 ,34.4 ,,,
2005/3/3,19:00:00,19.5 ,34.9 ,9.3 ,5.6 ,16.1 ,17.1 ,34.6 ,,,
2005/3/3,19:15:00,19.6 ,34.8 ,9.3 ,5.7 ,16.1 ,17.1 ,34.6 ,,,
2005/3/3,19:30:00,20.0 ,34.2 ,9.3 ,5.7 ,16.4 ,17.1 ,34.8 ,,,
2005/3/3,19:45:00,19.3 ,35.0 ,9.4 ,5.7 ,16.2 ,17.2 ,34.8 ,,,
2005/3/3,20:00:00,18.9 ,39.0 ,9.3 ,5.8 ,16.5 ,17.2 ,34.8 ,,,
2005/3/3,20:15:00,19.1 ,39.3 ,9.3 ,4.6 ,15.8 ,17.2 ,34.9 ,,,
2005/3/3,20:30:00,20.1 ,36.7 ,9.3 ,4.6 ,16.1 ,17.3 ,35.1 ,,,
2005/3/3,20:45:00,19.3 ,37.7 ,9.3 ,4.7 ,15.7 ,17.3 ,35.3 ,,,
2005/3/3,21:00:00,18.9 ,38.1 ,9.4 ,4.8 ,15.4 ,17.3 ,35.1 ,,,
2005/3/3,21:15:00,20.2 ,38.7 ,9.4 ,4.9 ,15.9 ,17.3 ,35.3 ,,,
2005/3/3,21:30:00,21.0 ,37.2 ,9.4 ,4.5 ,16.7 ,17.4 ,35.9 ,,,
2005/3/3,21:45:00,21.3 ,35.8 ,9.4 ,4.6 ,17.2 ,17.6 ,36.1 ,,,
2005/3/3,22:00:00,21.5 ,34.7 ,9.4 ,4.7 ,17.4 ,17.7 ,36.1 ,,,
2005/3/3,22:15:00,21.7 ,34.1 ,9.5 ,4.8 ,17.6 ,17.8 ,36.0 ,,,
2005/3/3,22:30:00,21.7 ,34.0 ,9.5 ,4.5 ,17.9 ,18.0 ,35.9 ,,,
2005/3/3,22:45:00,21.9 ,34.7 ,9.5 ,4.7 ,18.0 ,18.1 ,35.9 ,,,
2005/3/3,23:00:00,22.0 ,35.7 ,9.5 ,4.7 ,18.0 ,18.3 ,35.9 ,,,
2005/3/3,23:15:00,22.1 ,35.7 ,9.6 ,4.8 ,18.1 ,18.4 ,36.0 ,,,
2005/3/3,23:30:00,20.5 ,37.8 ,9.6 ,4.9 ,17.5 ,18.4 ,35.9 ,,,
2005/3/3,23:45:00,19.9 ,37.9 ,9.6 ,4.9 ,16.7 ,18.4 ,35.7 ,,,
2005/3/4,0:00:00,19.6 ,37.6 ,9.6 ,5.0 ,16.2 ,18.4 ,35.5 ,,,
2005/3/4,0:15:00,19.2 ,37.7 ,9.6 ,5.1 ,15.8 ,18.3 ,35.4 ,,,
2005/3/4,0:30:00,18.9 ,38.7 ,9.6 ,5.1 ,15.4 ,18.3 ,35.3 ,,,
2005/3/4,0:45:00,18.7 ,39.2 ,9.6 ,5.2 ,15.2 ,18.1 ,35.2 ,,,
2005/3/4,1:00:00,18.4 ,39.1 ,9.6 ,5.3 ,15.0 ,18.0 ,35.1 ,,,
2005/3/4,1:15:00,18.2 ,38.8 ,9.6 ,5.3 ,14.9 ,17.9 ,35.1 ,,,
2005/3/4,1:30:00,17.9 ,39.2 ,9.6 ,5.4 ,14.7 ,17.8 ,35.1 ,,,
2005/3/4,1:45:00,17.8 ,39.3 ,9.5 ,5.4 ,14.6 ,17.7 ,35.0 ,,,
2005/3/4,2:00:00,17.6 ,38.3 ,9.5 ,5.5 ,14.6 ,17.6 ,34.9 ,,,
2005/3/4,2:15:00,17.4 ,38.3 ,9.5 ,5.5 ,14.5 ,17.4 ,34.9 ,,,
2005/3/4,2:30:00,17.2 ,38.6 ,9.5 ,5.6 ,14.5 ,17.4 ,34.8 ,,,
2005/3/4,2:45:00,17.0 ,38.5 ,9.5 ,5.6 ,14.4 ,17.3 ,34.8 ,,,
2005/3/4,3:00:00,16.9 ,38.5 ,9.5 ,5.7 ,14.4 ,17.1 ,34.7 ,,,
2005/3/4,3:15:00,16.7 ,38.8 ,9.4 ,5.7 ,14.2 ,17.0 ,34.6 ,,,
2005/3/4,3:30:00,16.5 ,39.2 ,9.4 ,5.7 ,13.9 ,16.9 ,34.6 ,,,
2005/3/4,3:45:00,16.4 ,39.2 ,9.4 ,5.8 ,13.7 ,16.8 ,34.5 ,,,
2005/3/4,4:00:00,16.2 ,39.4 ,9.4 ,5.8 ,13.4 ,16.7 ,34.4 ,,,
2005/3/4,4:15:00,16.0 ,39.6 ,9.3 ,5.9 ,13.2 ,16.6 ,34.4 ,,,
2005/3/4,4:30:00,15.8 ,39.7 ,9.3 ,5.9 ,13.0 ,16.5 ,34.4 ,,,
2005/3/4,4:45:00,15.7 ,40.0 ,9.3 ,5.9 ,12.9 ,16.3 ,34.4 ,,,
2005/3/4,5:00:00,15.5 ,40.0 ,9.3 ,5.9 ,12.7 ,16.2 ,34.5 ,,,
2005/3/4,5:15:00,15.4 ,40.3 ,9.2 ,6.0 ,12.6 ,16.1 ,34.4 ,,,
2005/3/4,5:30:00,15.2 ,40.5 ,9.2 ,6.0 ,12.5 ,16.0 ,34.4 ,,,
2005/3/4,5:45:00,15.1 ,40.7 ,9.2 ,6.0 ,12.4 ,15.9 ,34.4 ,,,
2005/3/4,6:00:00,15.7 ,41.6 ,9.2 ,6.1 ,12.4 ,15.8 ,34.5 ,,,
2005/3/4,6:15:00,17.4 ,39.3 ,9.1 ,6.1 ,13.3 ,15.8 ,35.0 ,,,
2005/3/4,6:30:00,18.1 ,39.2 ,9.1 ,6.1 ,14.0 ,15.9 ,35.6 ,,,
2005/3/4,6:45:00,18.5 ,38.2 ,9.1 ,6.1 ,14.5 ,16.0 ,35.8 ,,,
2005/3/4,7:00:00,18.9 ,37.4 ,9.1 ,6.2 ,15.0 ,16.1 ,35.9 ,,,
2005/3/4,7:15:00,18.9 ,37.6 ,9.1 ,4.9 ,19.7 ,16.3 ,36.0 ,,,
2005/3/4,7:30:00,19.1 ,37.2 ,9.1 ,5.0 ,22.1 ,16.4 ,36.0 ,,,
2005/3/4,7:45:00,19.4 ,37.1 ,9.0 ,5.1 ,20.8 ,16.5 ,36.0 ,,,
2005/3/4,8:00:00,19.5 ,37.3 ,9.1 ,5.2 ,19.4 ,16.6 ,36.0 ,,,
2005/3/4,8:15:00,19.8 ,36.8 ,9.1 ,5.3 ,18.4 ,16.7 ,36.2 ,,,
2005/3/4,8:30:00,19.9 ,36.5 ,9.1 ,5.4 ,17.7 ,16.8 ,36.2 ,,,
2005/3/4,8:45:00,19.9 ,36.4 ,9.1 ,5.4 ,17.3 ,16.9 ,36.2 ,,,
2005/3/4,9:00:00,20.1 ,37.3 ,9.1 ,5.5 ,17.3 ,17.1 ,36.1 ,,,
2005/3/4,9:15:00,20.3 ,39.0 ,9.1 ,4.7 ,17.2 ,17.1 ,36.4 ,,,
2005/3/4,9:30:00,20.3 ,41.1 ,9.2 ,4.8 ,17.1 ,17.3 ,36.8 ,,,
2005/3/4,9:45:00,20.4 ,40.7 ,9.2 ,4.9 ,17.0 ,17.4 ,37.1 ,,,
2005/3/4,10:00:00,19.1 ,42.2 ,9.2 ,4.9 ,16.2 ,17.4 ,36.9 ,,,
2005/3/4,10:15:00,18.5 ,41.0 ,9.3 ,5.0 ,15.4 ,17.4 ,36.7 ,,,
2005/3/4,10:30:00,18.2 ,40.4 ,9.3 ,5.0 ,14.9 ,17.3 ,36.5 ,,,
2005/3/4,10:45:00,17.8 ,40.2 ,9.3 ,5.1 ,14.6 ,17.3 ,36.3 ,,,
2005/3/4,11:00:00,17.6 ,40.1 ,9.3 ,5.1 ,14.4 ,17.2 ,36.1 ,,,
2005/3/4,11:15:00,17.3 ,39.8 ,9.4 ,5.2 ,14.1 ,17.1 ,35.9 ,,,
2005/3/4,11:30:00,17.7 ,39.4 ,9.4 ,5.3 ,14.5 ,17.0 ,35.9 ,,,
2005/3/4,11:45:00,17.2 ,39.4 ,9.4 ,5.3 ,14.1 ,16.9 ,35.6 ,,,
2005/3/4,12:00:00,16.9 ,39.6 ,9.4 ,5.3 ,13.9 ,16.8 ,35.5 ,,,
2005/3/4,12:15:00,17.6 ,38.7 ,9.4 ,5.4 ,14.1 ,16.8 ,35.6 ,,,
2005/3/4,12:30:00,18.8 ,37.9 ,9.4 ,5.4 ,14.6 ,16.8 ,35.8 ,,,
2005/3/4,12:45:00,19.4 ,36.7 ,9.3 ,5.5 ,15.2 ,16.8 ,36.1 ,,,
2005/3/4,13:00:00,19.7 ,36.3 ,9.4 ,5.5 ,15.7 ,16.9 ,36.2 ,,,
2005/3/4,13:15:00,19.9 ,36.0 ,9.4 ,5.6 ,15.8 ,17.0 ,36.3 ,,,
2005/3/4,13:30:00,20.2 ,35.6 ,9.4 ,5.6 ,15.9 ,17.1 ,36.3 ,,,
2005/3/4,13:45:00,20.4 ,35.4 ,9.4 ,5.6 ,16.1 ,17.3 ,36.3 ,,,
2005/3/4,14:00:00,20.6 ,37.0 ,9.4 ,4.4 ,18.7 ,17.3 ,36.3 ,,,
2005/3/4,14:15:00,20.7 ,39.3 ,9.4 ,4.5 ,17.2 ,17.5 ,36.6 ,,,
2005/3/4,14:30:00,20.8 ,39.2 ,9.4 ,4.6 ,17.1 ,17.6 ,36.9 ,,,
2005/3/4,14:45:00,19.5 ,40.8 ,9.5 ,4.7 ,16.5 ,17.7 ,36.8 ,,,
2005/3/4,15:00:00,19.0 ,41.0 ,9.5 ,4.7 ,15.9 ,17.7 ,36.6 ,,,
2005/3/4,15:15:00,18.7 ,40.9 ,9.4 ,4.8 ,15.6 ,17.6 ,36.4 ,,,
2005/3/4,15:30:00,18.3 ,40.8 ,9.4 ,4.9 ,15.3 ,17.6 ,36.2 ,,,
2005/3/4,15:45:00,18.1 ,40.7 ,9.4 ,4.9 ,14.9 ,17.4 ,36.1 ,,,
2005/3/4,16:00:00,17.8 ,40.7 ,9.4 ,5.0 ,14.7 ,17.4 ,35.9 ,,,
2005/3/4,16:15:00,17.6 ,40.3 ,9.4 ,5.1 ,14.4 ,17.3 ,35.8 ,,,
2005/3/4,16:30:00,17.4 ,40.6 ,9.3 ,5.1 ,14.2 ,17.2 ,35.6 ,,,
2005/3/4,16:45:00,17.2 ,40.7 ,9.3 ,5.2 ,14.0 ,17.1 ,35.4 ,,,
2005/3/4,17:00:00,17.0 ,40.6 ,9.3 ,5.3 ,13.8 ,16.9 ,35.3 ,,,
2005/3/4,17:15:00,16.8 ,40.8 ,9.3 ,5.3 ,13.6 ,16.8 ,35.1 ,,,
2005/3/4,17:30:00,17.5 ,39.4 ,9.2 ,5.4 ,13.8 ,16.8 ,35.3 ,,,
2005/3/4,17:45:00,16.9 ,39.9 ,9.2 ,5.4 ,13.8 ,16.7 ,35.1 ,,,
2005/3/4,18:00:00,16.6 ,40.3 ,9.2 ,5.5 ,13.5 ,16.6 ,34.9 ,,,
2005/3/4,18:15:00,16.4 ,40.4 ,9.2 ,5.5 ,13.3 ,16.4 ,34.8 ,,,
2005/3/4,18:30:00,16.2 ,40.6 ,9.2 ,5.6 ,13.1 ,16.3 ,34.8 ,,,
2005/3/4,18:45:00,17.3 ,38.5 ,9.1 ,5.6 ,13.6 ,16.3 ,35.1 ,,,
2005/3/4,19:00:00,16.4 ,39.8 ,9.1 ,5.7 ,13.5 ,16.2 ,34.9 ,,,
2005/3/4,19:15:00,16.2 ,40.0 ,9.1 ,5.7 ,13.2 ,16.1 ,34.8 ,,,
2005/3/4,19:30:00,15.9 ,40.3 ,9.1 ,5.7 ,12.9 ,16.0 ,34.6 ,,,
2005/3/4,19:45:00,17.1 ,38.5 ,9.1 ,5.8 ,13.4 ,15.9 ,35.0 ,,,
2005/3/4,20:00:00,16.3 ,39.5 ,9.0 ,5.8 ,13.4 ,15.9 ,35.0 ,,,
2005/3/4,20:15:00,16.0 ,40.0 ,9.0 ,5.8 ,13.1 ,15.8 ,34.7 ,,,
2005/3/4,20:30:00,15.7 ,40.3 ,9.0 ,5.9 ,12.8 ,15.8 ,34.6 ,,,
2005/3/4,20:45:00,17.0 ,38.2 ,9.0 ,5.9 ,13.3 ,15.7 ,35.0 ,,,
2005/3/4,21:00:00,16.1 ,39.4 ,9.0 ,6.0 ,13.3 ,15.7 ,34.9 ,,,
2005/3/4,21:15:00,15.8 ,39.9 ,8.9 ,6.0 ,13.0 ,15.6 ,34.7 ,,,
2005/3/4,21:30:00,15.6 ,40.4 ,8.9 ,6.0 ,12.7 ,15.5 ,34.6 ,,,
2005/3/4,21:45:00,16.9 ,38.1 ,8.9 ,6.0 ,13.5 ,15.5 ,35.1 ,,,
2005/3/4,22:00:00,18.2 ,38.5 ,8.9 ,6.1 ,14.2 ,15.6 ,35.6 ,,,
2005/3/4,22:15:00,18.7 ,38.0 ,8.9 ,6.1 ,14.9 ,15.7 ,36.1 ,,,
2005/3/4,22:30:00,19.2 ,37.1 ,8.9 ,6.1 ,15.4 ,15.9 ,36.3 ,,,
2005/3/4,22:45:00,19.5 ,36.5 ,8.9 ,6.2 ,15.7 ,16.0 ,36.5 ,,,
2005/3/4,23:00:00,19.8 ,36.1 ,8.9 ,4.5 ,16.0 ,16.2 ,36.6 ,,,
2005/3/4,23:15:00,19.8 ,36.6 ,9.0 ,4.5 ,16.0 ,16.3 ,36.6 ,,,
2005/3/4,23:30:00,20.1 ,37.2 ,8.9 ,4.6 ,16.1 ,16.6 ,36.7 ,,,
2005/3/4,23:45:00,18.8 ,39.4 ,8.9 ,4.7 ,15.7 ,16.7 ,36.6 ,,,
2005/3/5,0:00:00,18.2 ,40.3 ,8.9 ,4.8 ,14.8 ,16.7 ,36.4 ,,,
2005/3/5,0:15:00,17.8 ,40.3 ,8.9 ,4.8 ,14.3 ,16.6 ,36.2 ,,,
2005/3/5,0:30:00,17.4 ,40.2 ,8.9 ,4.9 ,14.1 ,16.6 ,36.0 ,,,
2005/3/5,0:45:00,17.2 ,40.6 ,8.9 ,5.0 ,13.9 ,16.5 ,35.8 ,,,